Location: Chavannes
(47.1090°N, 0.2226°W)
Time: 04:33:50
(UTC+00:00)

Iridium 4 Rocket - Pass Details

Date: 16 October 2021
Orbit: 586 x 903 km, 86.9° (Epoch: 03 December)

Event Time Altitude Azimuth Distance (km) Brightness Sun altitude
Rises 17:45:34 0° 11° (N) 2,875 6.3 -6.6°
Reaches altitude 10° 17:48:15 10° 29° (NNE) 2,000 5.3 -7.0°
Maximum altitude 17:51:29 20° 77° (ENE) 1,503 4.4 -7.6°
Drops below altitude 10° 17:54:51 10° 124° (ESE) 2,102 5.3 -8.1°
Sets 17:57:45 0° 141° (SE) 3,073 6.3 -8.6°
